Regional Weather Roundup
Issued by NWS

Home | Current Version | Previous Version | Text Only | Print | Product List | Glossary Off
Versions: 1 2 3 4 5 6 7 8 9 10 11 12 13 14 15 16 17 18 19 20 21 22 23 24 25 26 27 28 29 30 31 32 33 34 35 36 37 38 39 40 41 42 43 44 45 46 47 48 49 50

000
ASUS43 KLSX 291307
RWRMO

WEATHER SUMMARY FOR MISSOURI
NATIONAL WEATHER SERVICE SPRINGFIELD MO
800 AM CDT FRI MAY 29 2015

NOTE: "FAIR" INDICATES FEW OR NO CLOUDS BELOW 12,000 FEET WITH NO
       SIGNIFICANT WEATHER AND/OR OBSTRUCTIONS TO VISIBILITY.
       CURRENT SKY AND/OR WEATHER CONDITIONS ARE NOT AVAILABLE FOR
       CHILLICOTHE AND FARMINGTON.

MOZ001>031-035>038-043-044-053-054-291400-
...NORTHERN AND WESTERN MISSOURI...

CITY           SKY/WX    TMP DP  RH WIND       PRES   REMARKS
KANSAS CTY INT LGT RAIN  65  63  93 S16       29.94S
KANSAS C DTWN  LGT RAIN  67  62  84 S8        29.95F
LEE`S SUMMIT   LGT RAIN  65  62  90 S8        29.99F
ST JOSEPH      CLOUDY    67  64  90 S8        29.95R
CHILLICOTHE      N/A     66  65  96 S5        29.98R
KIRKSVILLE     PTSUNNY   67  66  97 SW8       29.98S

$$
MOZ066>068-077>081-088>096-101>105-291400-
...SOUTHWEST MISSOURI...

CITY           SKY/WX    TMP DP  RH WIND       PRES   REMARKS
SPRINGFIELD    CLOUDY    68  63  84 SW5       30.04R
JOPLIN         HVY RAIN  67  66  97 NW7       30.05R FOG

$$
MOZ032>034-039>042-045>050-055>058-069>072-291400-
...CENTRAL MISSOURI...

CITY           SKY/WX    TMP DP  RH WIND       PRES   REMARKS
COLUMBIA       PTSUNNY   68  65  90 S6        30.01R
JEFFERSON CITY PTSUNNY   68  63  84 SE3       30.01R
ROLLA          MOSUNNY   69  63  81 S9        30.02R
SEDALIA        LGT RAIN  68  64  87 SW13      30.03R
WHITEMAN AFB   LGT RAIN  67  64  92 W10       30.00R
WARRENSBURG    RAIN      63  63 100 W10G17    30.00S
OSAGE BEACH    PTSUNNY   66  63  88 CALM      30.02R

$$
MOZ051-052-059>065-291400-
...EAST CENTRAL MISSOURI...

CITY           SKY/WX    TMP DP  RH WIND       PRES   REMARKS
ST LOUIS INTL  PTSUNNY   76  66  71 S12       30.03S
SPIRIT OF STL  MOSUNNY   74  68  81 SW10G21   30.01S
ST CHARLES     PTSUNNY   74  67  78 S12       30.02R

$$
MOZ072>076-082>087-097>100-106>115-291400-
...SOUTH CENTRAL AND SOUTHEAST MISSOURI...

CITY           SKY/WX    TMP DP  RH WIND       PRES   REMARKS
CAPE GIRARDEAU PTSUNNY   70  67  90 S12       30.08R
FARMINGTON     PTSUNNY   70  66  88 S10       30.11R
POPLAR BLUFF   SUNNY     72  67  84 VRB6      30.06R
WEST PLAINS    SUNNY     69  63  81 S6        30.08R

$$


USA.gov is the U.S. government's official web portal to all federal, state and local government web resources and services.